Regional Weather Roundup
Issued by NWS

Home | Current Version | Previous Version | Text Only | Print | Product List | Glossary Off
Versions: 1 2 3 4 5 6 7 8 9 10 11 12 13 14 15 16 17 18 19 20 21 22 23 24 25 26 27 28 29 30 31 32 33 34 35 36 37 38 39 40 41 42 43 44 45 46 47 48 49 50

000
ASUS45 KPSR 221400
RWRAZ

PRELIMINARY ARIZONA REGIONAL HOURLY WEATHER ROUNDUP
NATIONAL WEATHER SERVICE PHOENIX AZ
700 AM MST TUE APR 22 2014

NOTE: FAIR INDICATES FEW OR NO CLOUDS BELOW 12,000 FEET WITH NO
SIGNIFICANT WEATHER AND/OR OBSTRUCTIONS TO VISIBILITY.

AZZ001>003-036-221500-
NORTHWEST ARIZONA

CITY           SKY/WX    TMP DP  RH WIND       PRES   REMARKS
KINGMAN        PTSUNNY   68  34  28 S10       29.90R
$$

AZZ004>008-015-016-018-221500-
NORTH CENTRAL ARIZONA

CITY           SKY/WX    TMP DP  RH WIND       PRES   REMARKS
GRAND CANYON   MOSUNNY   37  29  72 CALM      30.09S
WILLIAMS       MOSUNNY   55  27  33 S10       30.17R
PRESCOTT       MOSUNNY   54  30  40 S7        30.04S
FLAGSTAFF      MOSUNNY   43  30  60 CALM      30.13R
PAYSON         MOSUNNY   55  32  41 CALM      30.08S
PAGE           MOSUNNY   65  32  29 S6        29.94S
$$

AZZ009>014-017-221500-
NORTHEAST ARIZONA

CITY           SKY/WX    TMP DP  RH WIND       PRES   REMARKS
WINSLOW        NOT AVBL
SAINT JOHNS    SUNNY     55  28  35 CALM      30.11S
WINDOW ROCK    SUNNY     45  31  58 CALM      30.17R
SHOW LOW       SUNNY     54  32  43 CALM      30.16S
$$

AZZ023-221500-
GREATER PHOENIX AREA

CITY           SKY/WX    TMP DP  RH WIND       PRES   REMARKS
PHOENIX        PTSUNNY   72  37  28 E7        29.85R
GLENDALE       PTSUNNY   70  41  35 CALM      29.86R
DEER VALLEY    MOSUNNY   72  35  25 E8        29.86R
SCOTTSDALE     MOSUNNY   70  39  32 CALM      29.89R
MESA-GATEWAY   MOSUNNY   70  34  26 SE6       29.89R
CHANDLER         N/A     66  43  42 E7        29.87R
$$

AZZ027-028-221500-
SOUTHWEST MARICOPA COUNTY AND PINAL COUNTY

CITY           SKY/WX    TMP DP  RH WIND       PRES   REMARKS
CASA GRANDE    MOSUNNY   66  36  32 CALM      29.89R
GILA BEND      SUNNY     72  32  23 SW3       29.85
$$

AZZ503-504-507>509-221500-
SOUTHEAST ARIZONA

CITY           SKY/WX    TMP DP  RH WIND       PRES   REMARKS
TUCSON         SUNNY     66  36  32 SE10      29.97S
RYAN FIELD       N/A     61  34  36 NE3       29.96S
NOGALES        SUNNY     59  36  42 CALM      30.03S
SIERRA VISTA   MOSUNNY   63  32  31 VRB2      30.07R
SAFFORD        SUNNY     67  28  23 SE15      29.97R
$$

AZZ020-021-025-026-031-221500-
SOUTHWEST ARIZONA

CITY           SKY/WX    TMP DP  RH WIND       PRES   REMARKS
YUMA           NOT AVBL
$$

CAZ031-033-041-043-047-048-061-221500-
SOUTHERN CALIFORNIA

CITY           SKY/WX    TMP DP  RH WIND       PRES   REMARKS
DOWNTOWN L.A.  CLOUDY    61  53  75 CALM      29.95R
L.A. AIRPORT   CLOUDY    60  53  77 W7        29.96R
SAN DIEGO      CLOUDY    61  52  72 W5        29.99R
BURBANK        CLOUDY    58  51  78 S3        29.95R
ONTARIO        CLOUDY    58  53  84 W3        29.95R HAZE
RIVERSIDE      CLOUDY    58  53  84 CALM      29.95R FOG
PALM SPRINGS   MOCLDY    72  43  35 CALM      29.80R
EL CENTRO NAS  PTSUNNY   76  39  26 S8        29.79R
IMPERIAL       MOSUNNY   72  41  32 S10       29.79R
BLYTHE         PTSUNNY   74  41  30 S12       29.78R
$$

NVZ020-UTZ003-221500-
SOUTHERN NEVADA-UTAH

CITY           SKY/WX    TMP DP  RH WIND       PRES   REMARKS
LAS VEGAS      NOT AVBL
SALT LAKE CITY CLOUDY    67  31  26 SE15      29.77S
$$

NMZ009-TXZ055-221500-
NEW MEXICO-WEST TEXAS

CITY           SKY/WX    TMP DP  RH WIND       PRES   REMARKS
ALBUQUERQUE    MOSUNNY   61  39  44 N6        30.16R
EL PASO        SUNNY     67  47  48 NE3       30.11R
$$


........................KEY........................
SKY/WX - SKY CONDITION/WEATHER
TMP    - TEMPERATURE IN FAHRENHEIT
DP     - DEW POINT IN FAHRENHEIT
RH     - RELATIVE HUMIDITY IN PERCENT
WIND   - DIRECTION AND SPEED IN MILES PER HOUR (MPH)
VRB    - VARIABLE WIND DIRECTION
PRES   - MEAN SEA LEVEL PRESSURE IN INCHES OF MERCURY
         F - FALLING PRESSURE   R - RISING PRESSURE
         S - STEADY PRESSURE
VSB    - VISIBILITY IN MILES
HX     - HEAT INDEX IN FAHRENHEIT
WCI    - WIND CHILL INDEX IN FAHRENHEIT
TC     - TEMPERATURE IN CELSIUS WHICH IS ALSO KNOWN AS
         TEMPERATURE IN CENTIGRADE
AFB    - AIR FORCE BASE
         LUKE AFB IS LUKE AIR FORCE BASE
         DAVIS-MONTHAN IS DAVIS-MONTHAN AIR FORCE BASE
NAS    - NAVAL AIR STATION
         EL CENTRO NAS IS EL CENTRO NAVAL AIR STATION
N/A    - NOT AVAILABLE



USA.gov is the U.S. government's official web portal to all federal, state and local government web resources and services.